79P/du Toit-Hartley (2023)

Japanese version
Home page
Updated on September 3, 2024

---------------------------------------------------------------------

* Profile

* Orbital Elements

Epoch 2024 Oct. 17.0 TT = JDT 2460600.5
T 2023 Sept. 30.30323 TT                                Rudenko
q   1.1207741            (2000.0)            P               Q
n   0.19519833     Peri.  281.76439     -0.92388766     +0.37883322
a   2.9431924      Node   280.51578     -0.32621129     -0.85349038
e   0.6191978      Incl.    3.14894     -0.20004444     -0.35782617
P   5.05
>From 213 observations 2003 Mar. 4-2024 Aug. 5, mean residual 0".8.
     Nongravitational parameters A1 = +0.01, A2 = -0.0035.

* Magnitudes Graph

        m1 = 15.5 + 5 log d + 10.0 log r(t + 20)

---------------------------------------------------------------------

The orbital elements are published on M.P.E.C. 2024-P125.
The magnitudes graphs are made with Comet for Windows.

---------------------------------------------------------------------

Copyright(C) Seiichi Yoshida (comet@aerith.net). All rights reserved.